TJS-2 (41911 NORAD) Tracking and Keplerian Element Data

This shows tracking and keplerian element data for the satellite.

Feedback or suggestion? Click here.




ElementValue
Catalog41911
NameTJS-2
Epoch Orbit727
Epoch Day351.94266186
Epoch Year2018
RAAN282.6857
Inclination0.3233
Eccentricity0.0003257
Argument of Perigee33.8779
Mean Anonmoly216.7987
Mean Motion1.00275744
Decay Rate-3.26E-06
L11 41911U 17001A 18351.94266186 -.00000326 00000-0 00000-0 0 9997
L22 41911 0.3233 282.6857 0003257 33.8779 216.7987 1.00275744 7277

Live tracking and technical data element details for TJS-2 (NORAD 41911). TJS-2 can be tracked NOW for your location showing map with azimuth and elevation plus other details from your city location.

Track the satellite on the map from your city or location and see movement details for azimuth, elevation, latitude, longitude, range, height, and movement on the map or in text.







IsCatalogInMostPopularTable: catalog: 41911, numindb: 135
Update: records affected: 1



GetName: 41911 TJS-2

Hit Count: updated at: Wed, 19 Dec 2018 16:25:24 GMT